Flag for Taiwan Weather past 2 weeks in Taipei, Taiwan

Now
72 °F

Passing clouds.


Feels Like: 74 °F
Forecast: 70 / 78 °F
Wind: 12 mph from East

Location: Sungshan / Taipei

Current Time: Oct 24, 2014 at 5:24:20 AM

Latest Report: Oct 24, 2014 at 5:00 AM


Visibility: N/A

Pressure: 29.98 "Hg

Humidity: 73%

Dew point: 63 °F

Location of TaipeiLocation

Historic Weather in Taipei — Graph

°F

Taipei temperature yesterday

Maximum temperature yesterday: 77 °F (at 12:00 PM)
Minimum temperature yesterday: 72 °F (at 12:00 AM)
Average temperature yesterday: 74 °F

Past Weeks' High & Low Weather Summary

 TemperatureHumidityPressure
High91 °F (Oct 21, 1:30 PM)94% (Oct 9, 6:51 AM)30.15 "Hg (Oct 9, 6:51 AM)
Low63 °F (Oct 15, 3:00 AM)34% (Oct 21, 1:30 PM)29.74 "Hg (Oct 10, 2:30 PM)
Average75 °F66%29.99 "Hg
* Reported Oct 9 4:00 AM — Oct 24 4:00 AM, Taipei, Weather by CustomWeather, © 2014

Note: Actual official high and low records may vary slightly from our data, if they occured in-between our weather recording intervals... More about our weather records

Advertising

Taipei weather history for previous 24 hours

 ConditionsComfort  
Time TempWeatherWind HumidityBarometerVisibility
4:00 AM
Oct 24
72 °FPassing clouds.13 mph73%29.98 "HgN/A
3:00 AM73 °FPartly cloudy.10 mph69%30.01 "HgN/A
2:00 AM72 °FPassing clouds.10 mph73%30.01 "HgN/A
1:00 AM72 °FPartly cloudy.10 mph73%30.01 "HgN/A
12:00 AM72 °FPartly cloudy.10 mph73%30.04 "HgN/A
11:30 PM
Oct 23
72 °FPartly cloudy.10 mph73%30.04 "HgN/A
11:00 PM72 °FPartly cloudy.10 mph73%30.04 "HgN/A
10:30 PM72 °FPartly cloudy.12 mph73%30.04 "HgN/A
10:00 PM73 °FPartly cloudy.10 mph69%30.07 "HgN/A
9:30 PM73 °FPassing clouds.10 mph69%30.07 "HgN/A
9:00 PM73 °FPassing clouds.10 mph69%30.07 "HgN/A
8:30 PM73 °FPassing clouds.9 mph69%30.07 "HgN/A
8:00 PM73 °FPassing clouds.10 mph69%30.07 "HgN/A
7:30 PM73 °FPassing clouds.10 mph65%30.07 "HgN/A
7:00 PM73 °FPassing clouds.10 mph65%30.07 "HgN/A
6:30 PM73 °FPassing clouds.10 mph65%30.04 "HgN/A
6:00 PM73 °FPassing clouds.10 mph65%30.01 "HgN/A
5:30 PM73 °FPassing clouds.12 mph65%30.01 "HgN/A
5:00 PM73 °FPartly sunny.9 mph65%30.01 "HgN/A
4:30 PM73 °FPartly sunny.10 mph61%30.01 "HgN/A
4:00 PM73 °FPartly sunny.12 mph65%30.01 "HgN/A
3:30 PM73 °FPartly sunny.13 mph65%30.01 "HgN/A
3:00 PM73 °FPartly sunny.15 mph61%30.01 "HgN/A
2:30 PM75 °FPartly sunny.13 mph61%30.01 "HgN/A
2:00 PM77 °FPartly sunny.12 mph54%30.01 "HgN/A
1:30 PM77 °FPartly sunny.13 mph54%30.01 "HgN/A
1:00 PM77 °FPartly sunny.13 mph51%30.04 "HgN/A
12:30 PM77 °FPartly sunny.12 mph54%30.04 "HgN/A
12:00 PM77 °FBroken clouds.13 mph54%30.07 "HgN/A
11:30 AM75 °FPartly sunny.10 mph57%30.07 "HgN/A
11:00 AM75 °FPartly sunny.10 mph57%30.09 "HgN/A
10:30 AM75 °FPartly sunny.14 mph57%30.09 "HgN/A
10:00 AM75 °FPartly sunny.13 mph57%30.09 "HgN/A
9:30 AM75 °FPartly sunny.14 mph57%30.09 "HgN/A
9:00 AM75 °FPartly sunny.13 mph57%30.09 "HgN/A
8:30 AM73 °FPartly sunny.12 mph61%30.09 "HgN/A
8:00 AM73 °FPartly sunny.12 mph57%30.09 "HgN/A
7:30 AM73 °FPartly sunny.10 mph57%30.09 "HgN/A
7:00 AM72 °FPartly sunny.10 mph61%30.09 "HgN/A
6:30 AM72 °FPartly sunny.9 mph65%30.07 "HgN/A
6:00 AM72 °FPartly sunny.9 mph65%30.07 "HgN/A
5:00 AM72 °FPassing clouds.9 mph65%30.07 "HgN/A
Weather by CustomWeather, © 2014

See weather overviewHow to use our weather pages